Buckeye, AZ

5:45 PM MST on July 20, 2017 (GMT -0700)
Buckeye Municipal

Weather History for KBXK - October, 2013

Change the Weather History Date:

Tuesday, October 15, 2013

  Actual Average (KGYR) Record (KGYR)
Temperature  
Mean Temperature 66 °F -  
Max Temperature 82 °F 87 °F 98 °F (2003)
Min Temperature 50 °F 59 °F 53 °F (1997)
Cooling Degree Days 1    
Growing Degree Days 16 (Base 50)    
Moisture  
Dew Point 28 °F    
Average Humidity 25    
Maximum Humidity 54    
Minimum Humidity 13    
Precipitation  
Precipitation 0.00 in - - ()
Sea Level Pressure  
Sea Level Pressure 29.91 in    
Wind  
Wind Speed 6 mph (NW)    
Max Wind Speed 10 mph    
Max Gust Speed -    
Visibility 10 miles    
Events      
Averages and records for this station are not official NWS values.
T = Trace of Precipitation, MM = Missing Value Source: NWS Daily Summary

Daily Weather History Graph

Daily Weather History Graph

Search for Another Location

Airport or City:

Trip Planner

Search our weather history database for the weather conditions in past years. The results will help you decide how hot, cold, wet, or windy it might be!

Date:

Astronomy

Oct. 15, 2013 Rise Set
Actual Time 6:35 AM MST 5:56 PM MST
Civil Twilight 6:10 AM MST 6:21 PM MST
Nautical Twilight 5:41 AM MST 6:50 PM MST
Astronomical Twilight 5:12 AM MST 7:19 PM MST
Moon 3:56 PM MST (10/15) 3:11 AM MST (10/15)
Length of Visible Light 12h 11m
Length of Day
11h 21m
Waxing Gibbous, 88% of the Moon is Illuminated
Oct 15
Waxing Gibbous
Oct 18
Full
Oct 26
Last Quarter
Nov 3
New
Nov 9
First Quarter

Hourly Weather History & Observations

Time (MST) Temp. Dew Point Humidity Pressure Visibility Wind Dir Wind Speed Gust Speed Precip Events Conditions
12:15 AM 62.6 °F 24.8 °F 24% 29.93 in 10.0 mi NW 8.1 mph - N/A   Clear
12:35 AM 62.6 °F 24.8 °F 24% 29.93 in 10.0 mi NNW 9.2 mph - N/A   Clear
12:55 AM 62.6 °F 26.6 °F 26% 29.93 in 10.0 mi NNW 9.2 mph - N/A   Clear
1:15 AM 62.6 °F 28.4 °F 27% 29.93 in 10.0 mi NNW 8.1 mph - N/A   Clear
1:35 AM 60.8 °F 28.4 °F 29% 29.93 in 10.0 mi NNW 6.9 mph - N/A   Clear
1:55 AM 59.0 °F 30.2 °F 34% 29.93 in 10.0 mi NNW 6.9 mph - N/A   Clear
2:15 AM 59.0 °F 28.4 °F 31% 29.92 in 10.0 mi NNW 6.9 mph - N/A   Clear
2:35 AM 57.2 °F 28.4 °F 33% 29.92 in 10.0 mi NNW 8.1 mph - N/A   Clear
2:55 AM 57.2 °F 28.4 °F 33% 29.92 in 10.0 mi North 10.4 mph - N/A   Clear
3:15 AM 57.2 °F 30.2 °F 36% 29.92 in 10.0 mi North 6.9 mph - N/A   Clear
3:35 AM 55.4 °F 30.2 °F 38% 29.91 in 10.0 mi NW 5.8 mph - N/A   Clear
3:55 AM 53.6 °F 30.2 °F 41% 29.91 in 10.0 mi North 4.6 mph - N/A   Clear
4:15 AM 55.4 °F 28.4 °F 36% 29.91 in 10.0 mi North 6.9 mph - N/A   Clear
4:35 AM 53.6 °F 28.4 °F 38% 29.91 in 10.0 mi North 5.8 mph - N/A   Clear
4:55 AM 53.6 °F 28.4 °F 38% 29.91 in 10.0 mi NNE 4.6 mph - N/A   Clear
5:15 AM 53.6 °F 30.2 °F 41% 29.91 in 10.0 mi NNE 6.9 mph - N/A   Clear
5:35 AM 53.6 °F 30.2 °F 41% 29.92 in 10.0 mi NNE 5.8 mph - N/A   Clear
5:55 AM 53.6 °F 30.2 °F 41% 29.92 in 10.0 mi North 8.1 mph - N/A   Clear
6:15 AM 50.0 °F 33.8 °F 54% 29.92 in 10.0 mi Calm Calm - N/A   Clear
6:35 AM 53.6 °F 32.0 °F 44% 29.93 in 10.0 mi Calm Calm - N/A   Clear
6:55 AM 51.8 °F 32.0 °F 47% 29.94 in 9.0 mi NE 3.5 mph - N/A   Clear
7:15 AM 53.6 °F 30.2 °F 41% 29.95 in 9.0 mi ENE 3.5 mph - N/A   Clear
7:35 AM 55.4 °F 32.0 °F 41% 29.95 in 10.0 mi NNE 4.6 mph - N/A   Clear
7:55 AM 59.0 °F 30.2 °F 34% 29.96 in 10.0 mi NNE 4.6 mph - N/A   Clear
8:15 AM 62.6 °F 30.2 °F 30% 29.96 in 10.0 mi North 6.9 mph - N/A   Clear
8:35 AM 64.4 °F 30.2 °F 28% 29.96 in 10.0 mi North 9.2 mph - N/A   Clear
8:55 AM 66.2 °F 32.0 °F 28% 29.96 in 10.0 mi North 8.1 mph - N/A   Clear
9:15 AM 68.0 °F 30.2 °F 24% 29.97 in 10.0 mi North 4.6 mph - N/A   Clear
9:35 AM 68.0 °F 28.4 °F 23% 29.96 in 10.0 mi Calm Calm - N/A   Clear
9:55 AM 69.8 °F 28.4 °F 21% 29.96 in 10.0 mi Calm Calm - N/A   Clear
10:15 AM 69.8 °F 32.0 °F 25% 29.96 in 10.0 mi Calm Calm - N/A   Clear
10:35 AM 71.6 °F 32.0 °F 23% 29.96 in 10.0 mi Calm Calm - N/A   Clear
10:55 AM 71.6 °F 32.0 °F 23% 29.95 in 10.0 mi SSE 3.5 mph - N/A   Clear
11:15 AM 73.4 °F 32.0 °F 22% 29.95 in 10.0 mi Calm Calm - N/A   Clear
11:35 AM 73.4 °F 32.0 °F 22% 29.94 in 10.0 mi Calm Calm - N/A   Clear
11:55 AM 73.4 °F 33.8 °F 23% 29.93 in 10.0 mi South 3.5 mph - N/A   Clear
12:15 PM 75.2 °F 33.8 °F 22% 29.92 in 10.0 mi South 4.6 mph - N/A   Clear
12:35 PM 77.0 °F 32.0 °F 19% 29.91 in 10.0 mi SW 3.5 mph - N/A   Clear
12:55 PM 77.0 °F 30.2 °F 18% 29.90 in 9.0 mi WSW 5.8 mph - N/A   Clear
1:15 PM 78.8 °F 30.2 °F 17% 29.89 in 8.0 mi West 3.5 mph - N/A   Clear
1:35 PM 80.6 °F 28.4 °F 15% 29.88 in 10.0 mi SW 8.1 mph - N/A   Clear
1:55 PM 80.6 °F 26.6 °F 14% 29.88 in 10.0 mi SSW 8.1 mph - N/A   Clear
2:15 PM 80.6 °F 26.6 °F 14% 29.87 in 10.0 mi SW 9.2 mph - N/A   Clear
2:35 PM 80.6 °F 24.8 °F 13% 29.87 in 10.0 mi SW 9.2 mph - N/A   Clear
2:55 PM 80.6 °F 24.8 °F 13% 29.86 in 10.0 mi WNW 3.5 mph - N/A   Clear
3:15 PM 80.6 °F 26.6 °F 14% 29.86 in 10.0 mi SW 9.2 mph - N/A   Clear
3:35 PM 80.6 °F 26.6 °F 14% 29.86 in 10.0 mi SW 9.2 mph - N/A   Clear
3:55 PM 80.6 °F 24.8 °F 13% 29.86 in 10.0 mi South 4.6 mph - N/A   Clear
4:15 PM 82.4 °F 28.4 °F 14% 29.86 in 10.0 mi SSW 5.8 mph - N/A   Clear
4:35 PM 80.6 °F 26.6 °F 14% 29.85 in 10.0 mi SW 3.5 mph - N/A   Clear
4:55 PM 80.6 °F 28.4 °F 15% 29.85 in 10.0 mi SSW 5.8 mph - N/A   Clear
5:15 PM 80.6 °F 28.4 °F 15% 29.85 in 10.0 mi SW 5.8 mph - N/A   Clear
5:55 PM 75.2 °F 26.6 °F 17% 29.86 in 10.0 mi West 10.4 mph - N/A   Clear
6:15 PM 73.4 °F 24.8 °F 16% 29.87 in 10.0 mi West 10.4 mph - N/A   Clear
6:35 PM 73.4 °F 24.8 °F 16% 29.87 in 10.0 mi WSW 10.4 mph - N/A   Clear
6:55 PM 73.4 °F 23.0 °F 15% 29.88 in 10.0 mi WSW 8.1 mph - N/A   Clear
7:15 PM 71.6 °F 24.8 °F 17% 29.89 in 10.0 mi West 9.2 mph - N/A   Clear
7:35 PM 68.0 °F 26.6 °F 21% 29.89 in 10.0 mi West 8.1 mph - N/A   Clear
7:55 PM 66.2 °F 23.0 °F 19% 29.90 in 10.0 mi West 8.1 mph - N/A   Clear
8:15 PM 68.0 °F 24.8 °F 20% 29.90 in 10.0 mi WNW 8.1 mph - N/A   Clear
8:35 PM 68.0 °F 24.8 °F 20% 29.91 in 10.0 mi West 8.1 mph - N/A   Clear
8:55 PM 66.2 °F 23.0 °F 19% 29.92 in 10.0 mi North 8.1 mph - N/A   Clear
9:15 PM 64.4 °F 23.0 °F 21% 29.92 in 10.0 mi NNW 8.1 mph - N/A   Clear
9:35 PM 64.4 °F 23.0 °F 21% 29.93 in 10.0 mi NW 4.6 mph - N/A   Clear
9:55 PM 62.6 °F 21.2 °F 20% 29.93 in 10.0 mi NNW 6.9 mph - N/A   Clear
10:15 PM 62.6 °F 19.4 °F 19% 29.93 in 10.0 mi NNW 8.1 mph - N/A   Clear
10:35 PM 62.6 °F 19.4 °F 19% 29.93 in 10.0 mi NW 5.8 mph - N/A   Clear
10:55 PM 60.8 °F 21.2 °F 22% 29.93 in 10.0 mi NW 5.8 mph - N/A   Clear
11:15 PM 59.0 °F 23.0 °F 25% 29.93 in 10.0 mi WNW 5.8 mph - N/A   Clear
11:35 PM 59.0 °F 19.4 °F 22% 29.93 in 10.0 mi WNW 5.8 mph - N/A   Clear
11:55 PM 60.8 °F 19.4 °F 20% 29.94 in 10.0 mi WNW 5.8 mph - N/A   Clear